Location: Dehesa de la Cepeda
(40.6574°N, 4.3013°W)
Time: 08:37:55
(UTC+00:00)

Vanguard 3 - Pass Details

Date: 10 August 2021
Orbit: 510 x 3260 km, 33.3° (Epoch: 18 September)

Event Time Altitude Azimuth Distance (km) Brightness Sun altitude
Rises 20:00:43 0° 276° (W) 5,546 12.9 -7.6°
Reaches altitude 10° 20:04:00 10° 271° (W) 4,857 12.2 -8.1°
Maximum altitude 20:18:22 52° 201° (SSW) 3,512 10.3 -10.5°
Enters shadow 20:35:26 14° 135° (SE) 5,845 10.9 -13.2°
